Back to catalog

STARLINK-5305

AliveCommunicationsVLEO
NORAD 55314·PAYLOAD·🇺🇸 United States

Launched Jan 19, 2023 from Vandenberg Space Force Base

Loading…

Next Passes (next 24 hours)

TLE

FreshSource: CelesTrak SupGP

Epoch: Sep 14, 2026, 21:26 UTC

1 55314C 23010AX  26257.89354167  .00756270  00000+0  55972-1 0  2571
2 55314  69.9999 247.4307 0003010 268.7777  47.0197 15.02698451    16

Track STARLINK-5305 in real time with AllMySat

Download on the App Store